Вернуться в каталог

SL-14 R/B

АктивенPO
NORAD 18215·ROCKET BODY·🇷🇺 Russia

Запущен Jul 16, 1987 с Plesetsk Cosmodrome

Loading…

Ближайшие Пролёты (ближайшие 24 часа)

TLE

СвежийSource: Space-Track

Эпоха: Sep 14, 2026, 05:27 UTC

1 18215U 87062B   26257.22749139  .00000355  00000-0  37952-4 0  9992
2 18215  82.5153 355.8095 0020292 145.8735 240.1303 14.85769689 95501

Отслеживайте SL-14 R/B в реальном времени с AllMySat

Download on the App Store